Home > Weather > Acworth > Past weeks

Flag for USA Weather for the Past 2 Weeks in Acworth, Georgia, USA

Now
66 °F

Scattered clouds.


Feels Like: 66 °F
Forecast: 44 / 71 °F
Wind: 12 mph from North

Location: Cobb County-McCollum Field Airport

Current Time: May 6, 2016 at 5:49:38 PM

Latest Report: May 6, 2016 at 4:47 PM


Visibility: 10 mi

Pressure: 29.90 "Hg

Humidity: 35%

Dew Point: 37 °F

Location of AcworthLocation

Historic Weather in Acworth — Graph

°F

Acworth Temperature Yesterday

Maximum temperature yesterday: 61 °F (at 1:47 PM)
Minimum temperature yesterday: 48 °F (at 6:47 AM)
Average temperature yesterday: 54 °F

High & Low Weather Summary for the Past Weeks

 TemperatureHumidityPressure
High86 °F (Apr 29, 4:47 PM)94% (May 1, 8:50 AM)30.11 "Hg (May 1, 8:50 AM)
Low45 °F (May 6, 6:47 AM)23% (Apr 29, 2:47 PM)29.67 "Hg (May 4, 7:55 PM)
Average70 °F60%29.92 "Hg
* Reported Apr 21 3:47 PM — May 6 3:47 PM, Acworth, Weather by CustomWeather, © 2016

Note: Actual official high and low records may vary slightly from our data, if they occured in-between our weather recording intervals... More about our weather records

Advertising

Acworth Weather History for the Previous 24 Hours

Scroll right to see more
 ConditionsComfort  
Time TempWeatherWind HumidityBarometerVisibility
3:47 PM
Fri, May 6
66 °FScattered clouds.8 mph35%29.91 "Hg10 mi
2:47 PM66 °FScattered clouds.14 mph35%29.92 "Hg10 mi
1:50 PM64 °FScattered clouds.9 mph40%29.93 "Hg10 mi
12:50 PM64 °FScattered clouds.7 mph40%29.94 "Hg10 mi
11:51 AM63 °FPassing clouds.6 mph52%29.96 "Hg10 mi
10:47 AM59 °FSunny.7 mph59%29.97 "Hg10 mi
9:55 AM55 °FSunny.7 mph63%29.96 "Hg10 mi
8:51 AM52 °FSunny.9 mph72%29.96 "Hg10 mi
7:47 AM46 °FSunny.5 mph76%29.95 "Hg10 mi
6:47 AM45 °FClear.7 mph81%29.93 "Hg10 mi
10:47 PM
Thu, May 5
48 °FPassing clouds.7 mph62%29.91 "Hg10 mi
9:47 PM50 °FPassing clouds.6 mph58%29.90 "Hg10 mi
8:47 PM52 °FScattered clouds.9 mph54%29.88 "Hg10 mi
7:47 PM54 °FScattered clouds.9 mph54%29.84 "Hg10 mi
6:47 PM55 °FScattered clouds.10 mph55%29.82 "Hg10 mi
5:47 PM57 °FScattered clouds.9 mph59%29.79 "Hg10 mi
Weather by CustomWeather, © 2016

See weather overviewHow to use our weather pages